Torna al catalogo

STARLINK-3342

AttivoComunicazioniVLEO
NORAD 50816·PAYLOAD·🇺🇸 United States

Lanciato Jan 6, 2022 da Cape Canaveral Space Force Station

Loading…

Prossimi Passaggi (prossime 24 ore)

TLE

AggiornatoSource: CelesTrak SupGP

Epoca: Sep 14, 2026, 12:52 UTC

1 50816C 22001P   26257.53659722 -.00011193  00000+0 -50050-3 0  2572
2 50816  53.2168  28.5964 0002300  80.7237 343.6551 15.20797138    14

Traccia STARLINK-3342 in tempo reale con AllMySat

Download on the App Store